< < Back
Terminal Aerodrome Forecast


Current Version              Previous Versions:   1  2  3  4  5  6  7  8  9  

Terminal Aerodrome Forecast

742
FTUS42 KILM 230500
TAFFLO
TAF
KFLO 230539Z 2306/2406 VRB03KT P6SM BKN080
     FM231100 06004KT P6SM VCSH SCT040 BKN060
     FM231300 07005KT 6SM -RA BKN020 OVC035
     FM231700 10010KT 2SM -RA BR BKN006 OVC012
     FM240000 17015KT 3SM -RA BR SCT004 BKN008 OVC012=

Latest METAR

213
SAUS70 KWBC 231200 RRB
MTRFLO
METAR KFLO 231153Z 05005KT 5SM -RA BR OVC075 09/08 A3023 RMK AO2 SLP234
P0002 60011 70011 T00940083 10094 20078 58004


USA.gov is the U.S. government's official web portal to all federal, state and local government web resources and services.